Regional Weather Roundup
Issued by NWS Charleston, SC

Home | Current Version | Previous Version | Text Only | Print | Product List | Glossary On
Versions: 1 2 3 4 5 6 7 8 9 10 11 12 13 14 15 16 17 18 19 20 21 22 23 24 25 26 27 28 29 30 31 32 33 34 35 36 37 38 39 40 41 42 43 44 45 46 47 48 49 50
000
ASUS42 KCHS 271615
RWRCHS

RDUWRKCHS 000
TTAA00 KILM 271610

REGIONAL WEATHER ROUNDUP
NATIONAL WEATHER SERVICE CHARLESTON SC
1100 AM EST TUE JAN 27 2015

NOTE: "FAIR" INDICATES FEW OR NO CLOUDS BELOW 12,000 FEET WITH NO
SIGNIFICANT WEATHER AND/OR OBSTRUCTIONS TO VISIBILITY.

NOT ALL STATIONS ARE QUALITY CONTROLLED BY THE NATIONAL
WEATHER SERVICE. USE DATA WITH CAUTION...ESPECIALLY
DEWPOINT OBSERVATIONS.

SCZ027-030-031-034>040-042>050-271700-
...SOUTH CAROLINA...

CITY           SKY/WX    TMP DP  RH WIND       PRES   REMARKS
N CHARLESTON   PTSUNNY   45  24  43 NW13      29.88S
WATERFRONT PRK NOT AVBL
FORT JOHNSON   NOT AVBL
JOHNS ISLAND   MOSUNNY   46  27  46 NW9       29.89S
PINOPOLIS      NOT AVBL
MONCKS CORNER  FAIR      43  27  52 N7        29.88S
SUMMERVILLE    CLOUDY    43  28  56 NW9       29.90S
BEAUFORT MCAS  MOSUNNY   46  29  51 NW14      29.90F
BEAUFORT ARPT  FAIR      45  32  61 NW13G18   29.90S
HILTON HEAD IS SUNNY     45  32  61 N12G23    29.91F
GEORGETOWN     FAIR      43  28  56 NW14      29.86S
WALTERBORO     CLOUDY    43  25  49 NW8       29.90S
ORANGEBURG     CLOUDY    42  25  50 NW7       29.89S
BARNWELL       PTSUNNY   43  32  65 CALM      29.91S
AIKEN          PTSUNNY   41  30  65 W8        29.92S
MANNING        NOT AVBL
KINGSTREE      FAIR      45  32  61 NW14      29.88S
COLUMBIA       CLOUDY    43  25  49 NW12      29.90R
SUMTER         CLOUDY    42  22  46 N12       29.87R
FLORENCE       CLOUDY    41  19  41 N13       29.86S
MYRTLE BEACH   SUNNY     43  25  49 NW13      29.85R
N MYRTLE BEACH SUNNY     44  28  53 N8        29.82R

$$

GAZ063-065-086>088-099>101-113>116-118-119-134-136>141-150-271700-
...GEORGIA...

CITY           SKY/WX    TMP DP  RH WIND       PRES   REMARKS
SAVANNAH ARPT  PTSUNNY   49  31  49 NW15      29.91S
HUNTER AAF     MOSUNNY   51  33  49 NW13      29.88S
FORT STEWART   MOSUNNY   51  32  49 W15G24    29.91S
STATESBORO     CLOUDY    45  33  63 NW10      29.90F
SYLVANIA       CLOUDY    44  34  69 NW10      29.91S
CLAXTON        FAIR      46  36  66 NW20      29.92S
THOMSON        SUNNY     48  35  62 W13G18    29.93S
AUGUSTA-BUSH   CLOUDY    43  30  60 MISG      29.91R
AUGUSTA-DANIEL CLOUDY    44  30  57 NW6       29.90R
SWAINSBORO     FAIR      48  27  43 W14G23    29.92F
VIDALIA        CLOUDY    46  34  61 NW13G20   29.94S
ALMA           SUNNY     50  34  54 W7        29.95F
WAYCROSS       SUNNY     55  39  55 W8        29.96F
JESUP          FAIR      52  37  58 NW16      29.95F
BRUNSWICK      SUNNY     52  34  50 W14G21    29.95S
SAINT SIMONS   SUNNY     51  34  52 W14G20    29.95S

$$

SCZ027-028-034-036>038-045-046-048>050-GAZ119-141-271700-
...LAKE AND SUPPLEMENTAL COASTAL OBSERVATIONS...

STATION/POSITION TIME  SKY/WX   TEMP    WIND        PRES    VSBY
                                AIR SEA DIR/SP/G
                 (UTC)          (F)     (DEG/KT/KT) (MB)    (MI)
UPR LAKE MARION  NOT AVBL
WINYAH BAY       1500            40     320/ 10     1009.0S
LAKE MURRAY      1500            40     300/  4/  7 1011.9R
ACE BASIN NERRS  NOT AVBL
FORT PULASKI     1600            45 53  290/ 14/ 16 1012.9S
SAPELO ISLAND    1500            47     290/  9     1013.0F

$$

ANZ835-935-AMZ111-154-330-350-352-354-374-450-454-472-271700-
...C-MAN AND BUOY OBSERVATIONS...

STATION/POSITION TIME  SKY/WX   TEMP    WIND        PRES    VSBY
                                AIR SEA DIR/SP/G
                 (UTC)          (F)     (DEG/KT/KT) (MB)    (MI)
FOLLY BEACH CMAN 1500            42     310/  7/ 10 1012.2R
BUOY 41004       1600            44 68  300/ 14/ 21 1010.9R
WVE H/P(F/S)=  5/ 7 SWL H/P/D(F/S/D)=  2/16

BUOY 41008       1600            47 54  290/ 16/ 19 1012.8F
WVE H/P(F/S)=  3/ 4

5E ST. MARYS GA  1600               58                N/A
WVE H/P(F/S)=  2/ 3

FRYING PAN BUOY  1600            43 66  340/ 16/ 17 1009.3R
WVE H/P(F/S)=  7/ 8 SWL H/P/D(F/S/D)=  5/210/ 8

BUOY 41025       1600            39 69  330/ 21/ 27 1006.1F
WVE H/P(F/S)=  7/12 SWL H/P/D(F/S/D)=  5/ 40/12

CAPE LOOKOUT NC  1500            37     340/ 19/ 21 1007.7R
BUOY 41002       1455            60 71  300/ 27/ 37 1004.8F
WVE H/P(F/S)= 14/ 9 SWL H/P/D(F/S/D)=  5/270/19

BUOY 41010       1600            62 76  280/ 25/ 33 1013.2R
WVE H/P(F/S)= 11/10 SWL H/P/D(F/S/D)=  7/320/10

BUOY 41012       NOT AVBL
ST AUGUSTINE FL  1600            53     290/  9/ 15 1016.4F
CAPERS NEARSHORE 1500            41     310/ 14/ 17   N/A
FRIPP NEARSHORE  1500            43     310/ 17/ 21   N/A


$$

43




USA.gov is the U.S. government's official web portal to all federal, state and local government web resources and services.